Date String (YYYY-MM-DD hh:mm:ss) UTC,Instrument flags,Ambient pressure (hPa),Sample flow (lpm),Bypass flow (lpm),Sample temperature (°C),Ambient temperature (°C),ASC tube jacket temperature (°C),LED temperature (°C),Box temperature (°C),Sample RH (%),Span deviation,Mass concentration (μg/m³),Mass concentration (μg/m³),Mass concentration (μg/m³)
DateTimeUTC,F1_M11,P_M11,Q1_M11,Q2_M11,T1_M11,T2_M11,T3_M11,T4_M11,T5_M11,U1_M11,ZSPAN_M11,X0_M11,X2_M11,X1_M11
2022-11-17 22:00:00,,0832.2,5.00,0.00,22.4,21.1,00.0,31.2,24.2,11.5,0000.0,0008.39,0005.42,0005.24
2022-11-17 22:01:00,,0832.2,5.00,0.00,22.4,21.1,00.0,31.2,24.2,11.5,0000.0,0008.12,0005.43,0005.25
2022-11-17 22:02:00,,0832.2,5.00,0.00,22.4,21.1,00.0,31.2,24.2,11.4,0000.0,0008.14,0005.45,0005.27
2022-11-17 22:03:00,,0832.2,5.00,0.00,22.4,21.0,00.0,31.2,24.1,11.3,0000.0,0007.99,0005.45,0005.27
2022-11-17 22:04:00,,0832.4,4.99,0.00,22.3,20.9,00.0,31.2,24.1,11.2,0000.0,0007.95,0005.47,0005.28
2022-11-17 22:05:00,,0832.3,5.00,0.00,22.3,20.8,00.0,31.2,24.0,11.1,0000.0,0007.92,0005.46,0005.29
2022-11-17 22:06:00,,0832.3,5.00,0.00,22.2,20.7,00.0,31.2,24.0,11.1,0000.0,0007.88,0005.46,0005.30
2022-11-17 22:07:00,,0832.3,5.01,0.00,22.2,20.6,00.0,31.2,23.9,11.1,0000.0,0008.09,0005.50,0005.31
2022-11-17 22:08:00,,0832.3,5.01,0.00,22.2,20.6,00.0,31.2,23.9,11.2,0000.0,0008.44,0005.54,0005.33
2022-11-17 22:09:00,,0832.3,5.00,0.00,22.2,20.6,00.0,31.2,23.9,11.2,0000.0,0008.42,0005.55,0005.35
2022-11-17 22:10:00,,0832.3,5.00,0.00,22.2,20.7,00.0,31.2,24.0,11.2,0000.0,0008.39,0005.56,0005.36
2022-11-17 22:11:00,,0832.2,5.00,0.00,22.2,20.7,00.0,31.1,24.0,11.3,0000.0,0008.35,0005.58,0005.37
2022-11-17 22:12:00,,0832.2,5.00,0.00,22.1,20.7,00.0,31.1,23.9,11.4,0000.0,0008.38,0005.59,0005.36
2022-11-17 22:13:00,,0832.3,5.00,0.00,22.1,20.7,00.0,31.1,23.9,11.4,0000.0,0008.39,0005.60,0005.36
2022-11-17 22:14:00,,0832.3,4.99,0.00,22.1,20.6,00.0,31.1,23.9,11.4,0000.0,0008.37,0005.62,0005.38
2022-11-17 22:15:00,,0832.3,5.00,0.00,22.1,20.6,00.0,31.1,23.9,11.5,0000.0,0008.38,0005.63,0005.39
2022-11-17 22:16:00,,0832.3,5.00,0.00,22.1,20.6,00.0,31.1,23.9,11.5,0000.0,0008.38,0005.63,0005.39
2022-11-17 22:17:00,,0832.3,5.00,0.00,22.1,20.6,00.0,31.1,23.9,11.5,0000.0,0008.75,0005.64,0005.40
2022-11-17 22:18:00,,0832.4,5.00,0.00,22.1,20.6,00.0,31.1,23.9,11.4,0000.0,0008.80,0005.61,0005.40
2022-11-17 22:19:00,,0832.3,5.00,0.00,22.1,20.6,00.0,31.1,23.9,11.4,0000.0,0008.44,0005.61,0005.40
2022-11-17 22:20:00,,0832.3,5.00,0.00,22.1,20.7,00.0,31.1,23.9,11.4,0000.0,0008.46,0005.63,0005.42
2022-11-17 22:21:00,,0832.3,5.00,0.00,22.1,20.7,00.0,31.0,23.9,11.4,0000.0,0008.43,0005.63,0005.45
2022-11-17 22:22:00,,0832.4,4.99,0.00,22.1,20.7,00.0,31.0,23.9,11.4,0000.0,0008.42,0005.63,0005.45
2022-11-17 22:23:00,,0832.4,5.00,0.00,22.1,20.8,00.0,31.0,23.9,11.4,0000.0,0008.52,0005.66,0005.48
2022-11-17 22:24:00,,0832.5,5.00,0.00,22.1,20.8,00.0,31.0,23.9,11.4,0000.0,0008.50,0005.67,0005.51
2022-11-17 22:25:00,,0832.5,5.00,0.00,22.1,20.8,00.0,31.0,23.9,11.4,0000.0,0008.49,0005.67,0005.52
2022-11-17 22:26:00,,0832.5,5.00,0.00,22.1,20.8,00.0,31.0,23.9,11.4,0000.0,0008.57,0005.68,0005.54
2022-11-17 22:27:00,,0832.5,5.01,0.00,22.1,20.8,00.0,31.0,23.9,11.4,0000.0,0008.62,0005.71,0005.56
2022-11-17 22:28:00,,0832.5,5.00,0.00,22.1,20.8,00.0,31.0,23.9,11.3,0000.0,0008.38,0005.74,0005.58
2022-11-17 22:29:00,,0832.4,4.99,0.00,22.1,20.8,00.0,31.0,23.9,11.3,0000.0,0008.12,0005.75,0005.59
2022-11-17 22:30:00,,0832.5,4.99,0.00,22.1,20.8,00.0,31.0,23.9,11.2,0000.0,0008.11,0005.76,0005.60
2022-11-17 22:31:00,,0832.6,5.00,0.00,22.1,21.0,00.0,31.0,24.0,11.2,0000.0,0008.10,0005.76,0005.60
2022-11-17 22:32:00,,0832.6,5.01,0.00,22.2,21.7,00.0,30.9,24.1,11.2,0000.0,0008.15,0005.76,0005.61
2022-11-17 22:33:00,,0832.6,5.00,0.00,22.3,22.2,00.0,31.0,24.3,11.2,0000.0,0008.16,0005.76,0005.62
2022-11-17 22:34:00,,0832.6,4.98,0.00,22.3,22.0,00.0,31.0,24.3,11.1,0000.0,0008.25,0005.77,0005.62
2022-11-17 22:35:00,,0832.6,5.01,0.00,22.3,21.8,00.0,31.1,24.3,11.1,0000.0,0008.50,0005.77,0005.62
2022-11-17 22:36:00,,0832.6,5.01,0.00,22.3,21.6,00.0,31.1,24.2,11.1,0000.0,0008.66,0005.79,0005.62
2022-11-17 22:37:00,,0832.6,5.00,0.00,22.3,21.4,00.0,31.1,24.2,11.1,0000.0,0008.67,0005.81,0005.63
2022-11-17 22:38:00,,0832.6,5.00,0.00,22.3,21.4,00.0,31.1,24.2,11.2,0000.0,0008.63,0005.81,0005.64
2022-11-17 22:39:00,,0832.6,5.00,0.00,22.3,21.3,00.0,31.1,24.2,11.2,0000.0,0009.19,0005.81,0005.65
2022-11-17 22:40:00,,0832.6,5.00,0.00,22.3,21.3,00.0,31.1,24.2,11.2,0000.0,0009.34,0005.82,0005.66
2022-11-17 22:41:00,,0832.6,5.00,0.00,22.3,21.2,00.0,31.2,24.2,11.2,0000.0,0009.42,0005.87,0005.67
2022-11-17 22:42:00,,0832.6,4.99,0.00,22.3,21.2,00.0,31.2,24.2,11.3,0000.0,0009.40,0005.86,0005.66
2022-11-17 22:43:00,,0832.6,5.00,0.00,22.3,21.2,00.0,31.2,24.2,11.3,0000.0,0009.34,0005.84,0005.65
2022-11-17 22:44:00,,0832.7,5.00,0.00,22.3,21.1,00.0,31.2,24.1,11.3,0000.0,0009.35,0005.85,0005.65
2022-11-17 22:45:00,,0832.7,5.01,0.00,22.3,21.1,00.0,31.2,24.1,11.3,0000.0,0009.37,0005.82,0005.64
2022-11-17 22:46:00,,0832.7,4.98,0.00,22.3,21.1,00.0,31.2,24.2,11.3,0000.0,0009.13,0005.83,0005.64
2022-11-17 22:47:00,,0832.6,5.00,0.00,22.3,21.1,00.0,31.2,24.2,11.3,0000.0,0009.08,0005.87,0005.65
2022-11-17 22:48:00,,0832.6,5.00,0.00,22.3,21.1,00.0,31.2,24.2,11.3,0000.0,0009.04,0005.85,0005.65
2022-11-17 22:49:00,,0832.6,5.00,0.00,22.3,21.0,00.0,31.2,24.1,11.3,0000.0,0009.05,0005.85,0005.64
2022-11-17 22:50:00,,0832.6,5.00,0.00,22.3,21.0,00.0,31.2,24.1,11.3,0000.0,0008.64,0005.84,0005.62
2022-11-17 22:51:00,,0832.6,5.01,0.00,22.3,21.0,00.0,31.2,24.1,11.3,0000.0,0008.73,0005.81,0005.59
2022-11-17 22:52:00,,0832.6,5.01,0.00,22.3,21.0,00.0,31.2,24.1,11.3,0000.0,0008.71,0005.76,0005.56
2022-11-17 22:53:00,,0832.6,4.99,0.00,22.3,21.0,00.0,31.2,24.1,11.3,0000.0,0008.71,0005.74,0005.54
2022-11-17 22:54:00,,0832.6,5.00,0.00,22.3,21.0,00.0,31.2,24.1,11.3,0000.0,0008.79,0005.75,0005.53
2022-11-17 22:55:00,,0832.6,5.01,0.00,22.3,20.9,00.0,31.2,24.1,11.3,0000.0,0008.79,0005.73,0005.51
2022-11-17 22:56:00,,0832.6,5.01,0.00,22.3,20.9,00.0,31.2,24.1,11.3,0000.0,0008.60,0005.72,0005.49
2022-11-17 22:57:00,,0832.6,5.01,0.00,22.3,20.9,00.0,31.2,24.1,11.3,0000.0,0008.57,0005.71,0005.47
2022-11-17 22:58:00,,0832.6,4.99,0.00,22.3,20.9,00.0,31.2,24.1,11.3,0000.0,0008.47,0005.65,0005.44
2022-11-17 22:59:00,,0832.6,4.98,0.00,22.3,20.9,00.0,31.1,24.1,11.3,0000.0,0008.48,0005.63,0005.41
